Погода в Юровичах

Беларусь     51°56′46″N   29°31′32″E
темп.,
°C
ветер,
м/с
пор.,
м/с
влажн.,
%
обл.,
%
осадки,
мм/ч
давл.,
гПа
погр.,
м
10 мая, пн
пн1000:00+5юв34685 0.0 102647
03:00+4ююв34700 0.0 102652
06:00+4ююв34751 0.0 102662
09:00+10юв45635 0.0 1027361
12:00+15ююв44510 0.0 10261163
15:00+17юв33465 0.0 10251531
18:00+16вюв32512 0.0 10241134
21:00+10в34640 0.0 102541
11 мая, вт
вт1100:00+7вюв35690 0.0 102673
03:00+6в22720 0.0 102613
06:00+5всв34790 0.0 102567
09:00+12св35570 0.0 1025432
12:00+17св34490 0.0 1023857
15:00+20св45515 0.0 10211102
18:00+20св46632 0.0 10201122
21:00+14св48851 0.0 1020125
12 мая, ср
ср1200:00+12в512945 0.0 1020350
03:00+8вюв511923 0.0 1020335
06:00+7в512931 0.0 1021458
09:00+10вюв7106979 0.0 10211102
12:00+14вюв7105782 0.0 10191693
15:00+14в566376 0.1 10171238
18:00+12в6878100 0.9 1016637
21:00+9вюв2695100 3.6 1015292
13 мая, чт
чт1300:00+8в2694100 0.3 1013241
03:00+8вюв2595100 0.3 1012177
06:00+8вюв3696100 0.0 1012267
09:00+10юв5884100 0.0 1012677
12:00+14юв6866100 0.1 10111411
15:00+15ююв6960100 0.2 10101107
18:00+12ююв51176100 0.0 1011596
21:00+11вюв3991100 0.3 1011282
14 мая, пт
пт1400:00+11в4119799 1.1 1009320
03:00+12юв4998100 3.2 1008372
06:00+12вюв3799100 3.1 1007303
09:00+13ююв4691100 3.1 1007395
12:00+18ю467163 0.4 10071175
15:00+19ююз56648 1.6 10071211
18:00+19юз35665 0.0 10071035
21:00+14ю22818 0.1 100811